Theta_e
312 312 311 311 311 311 311 310 309 309 307 308 307 312 316 316 315 320 324 326 323 319 311 314 312 309 310 311 308 309 308 309 312 310 314 311 314 311 309 309 307 308 306 308 308 309 308 309 307 309 309 310 312 314 314 315 314 314 312 312 314 323 308 305 306 311 313 315 314 316 314 313 311 312 313 312 310 311 309 308 310 307 308 305 305 303 308
312 311 311 311 311 310 310 310 309 308 306 307 309 312 316 316 317 318 324 327 325 315 306 305 307 309 309 307 310 313 312 312 312 312 315 313 311 310 310 310 311 309 312 311 308 312 306 310 310 308 311 310 315 315 314 315 312 311 312 309 314 307 310 308 304 304 307 308 312 310 314 313 311 310 312 313 313 313 313 312 313 307 307 307 304 300 305
312 311 312 311 310 310 310 310 309 308 307 308 309 310 315 316 318 320 321 325 322 312 313 309 306 307 307 309 309 311 313 316 317 316 315 317 315 314 311 311 312 310 312 311 312 312 310 309 312 312 311 312 313 314 314 314 313 314 316 327 317 309 308 306 301 299 297 297 299 302 305 308 311 312 312 313 312 312 311 306 308 302 310 310 305 305 311
311 311 311 311 310 310 310 310 309 307 307 307 311 312 314 316 310 315 316 318 317 316 317 316 311 309 311 309 312 313 312 316 318 317 316 318 317 317 316 316 315 313 313 311 311 311 313 310 311 311 311 312 314 314 313 313 314 320 331 323 317 309 310 310 308 306 304 307 310 312 313 312 308 310 311 312 312 313 313 311 307 304 313 310 311 310 310
311 311 311 311 311 310 309 309 309 307 306 306 309 314 316 318 314 313 309 314 313 314 316 314 314 312 314 310 312 309 312 314 315 318 314 316 316 316 316 314 312 313 313 312 312 312 311 313 312 311 312 314 315 316 315 313 317 334 323 324 316 312 307 310 310 309 309 311 311 313 313 310 311 310 310 311 311 312 311 308 306 314 311 304 312 317 311
311 312 311 311 311 311 310 308 307 306 306 307 312 314 319 314 317 318 317 311 306 309 311 314 314 314 314 312 313 311 311 312 311 315 317 317 319 315 315 313 315 315 313 314 311 311 312 313 310 313 314 314 316 315 315 314 322 321 315 318 314 311 307 310 310 308 309 311 312 313 312 312 312 311 311 310 311 312 310 310 312 314 308 305 314 322 313
311 311 311 311 312 311 311 310 307 305 304 306 315 312 315 316 316 316 317 314 315 314 316 314 313 313 313 313 313 311 311 311 313 312 313 315 316 317 311 313 314 315 316 315 312 314 309 309 315 314 314 315 315 313 314 315 316 314 313 315 318 313 308 310 310 309 309 310 311 312 311 312 311 312 312 312 312 312 312 312 314 314 314 316 316 319 314
312 311 311 311 312 312 312 310 308 306 304 312 315 310 309 307 307 311 314 313 315 317 315 314 312 311 315 311 312 312 312 311 313 314 313 312 314 317 313 312 314 315 315 316 313 313 313 312 312 316 315 315 316 313 314 315 316 315 312 314 320 313 309 312 311 309 307 309 311 311 311 311 310 311 312 312 312 312 313 314 315 317 315 313 312 314 316
312 311 311 311 312 312 312 311 308 306 306 313 311 309 310 309 311 309 308 312 315 315 314 312 312 311 313 311 313 312 313 311 313 313 316 313 313 314 311 313 314 316 316 315 314 314 314 314 315 316 315 312 316 314 315 316 316 314 313 315 316 312 312 313 311 306 305 309 309 309 310 310 310 310 311 311 311 310 312 311 316 312 312 313 313 313 313
312 311 311 311 311 312 311 311 308 307 306 311 309 305 311 312 314 312 310 311 315 312 313 314 311 308 313 313 311 311 311 311 313 312 316 316 315 315 314 314 314 315 315 314 313 314 315 316 317 318 318 319 318 319 318 317 316 316 314 316 313 311 312 311 308 304 305 309 309 308 308 308 306 308 310 312 312 313 313 321 318 315 315 314 311 312 324
311 311 312 312 311 311 311 310 310 308 309 306 305 305 307 304 303 307 312 308 311 311 311 311 310 315 312 311 311 311 311 311 311 309 313 315 315 317 316 315 314 313 314 313 317 318 318 319 319 319 318 317 317 318 318 317 317 317 316 313 313 314 311 311 312 305 305 309 309 309 305 299 302 319 319 315 312 316 313 312 314 320 316 316 320 321 325
310 311 312 312 311 311 311 310 310 309 308 310 311 307 308 308 307 308 310 308 307 310 309 308 310 311 309 310 310 309 309 309 309 311 309 312 314 316 316 316 315 314 316 319 319 319 320 321 319 319 317 317 317 317 316 315 316 320 319 315 313 312 311 311 313 306 305 310 309 304 298 300 321 322 323 321 324 324 319 326 321 320 319 319 318 321 325
310 310 312 311 311 311 311 310 310 309 308 310 311 307 310 311 307 307 308 307 307 308 306 308 309 308 309 309 309 309 310 310 310 310 311 310 311 314 316 315 314 315 319 316 318 319 317 315 317 317 316 317 317 316 315 315 315 317 318 318 315 312 311 313 312 310 310 308 306 297 300 315 319 321 320 324 323 324 319 319 320 321 321 322 321 326 331
310 310 312 312 311 311 311 311 310 310 308 308 310 309 311 311 307 306 306 305 307 309 309 306 307 307 309 309 309 308 310 309 311 312 308 311 312 313 315 317 317 318 318 318 318 321 317 317 312 312 313 313 314 312 313 315 314 314 314 316 316 315 313 313 310 314 305 306 304 304 314 311 316 315 318 316 318 317 315 310 317 322 325 324 324 329 331
309 309 311 312 311 311 310 311 310 310 309 307 311 310 310 310 309 306 307 307 304 308 308 304 311 309 309 309 308 307 308 310 308 309 313 314 311 312 314 317 319 317 319 318 316 319 315 314 307 306 309 307 304 307 313 311 315 316 316 317 318 318 313 314 309 310 310 305 303 304 304 302 311 318 325 327 331 325 325 319 318 323 325 327 327 329 329
309 309 311 311 311 310 310 310 310 310 309 307 309 309 310 310 311 311 307 305 305 303 308 310 310 309 308 308 308 306 307 308 309 309 308 309 311 313 316 318 318 319 319 317 320 316 315 311 307 306 304 305 309 308 307 310 310 314 316 316 316 317 319 321 310 309 308 308 303 303 302 306 314 322 326 328 328 325 325 314 310 321 326 327 327 329 330
309 309 311 311 311 310 310 310 310 310 309 307 307 308 308 311 309 308 305 306 306 304 310 310 310 309 306 306 309 309 311 307 308 305 306 308 312 311 314 316 319 319 317 315 317 316 313 311 310 311 311 312 308 307 309 309 308 309 314 316 314 314 313 313 310 309 309 307 304 303 308 309 319 324 325 324 330 324 319 304 306 320 326 328 328 330 330
309 309 309 309 310 310 310 310 310 309 308 306 308 306 307 311 310 310 308 306 303 304 309 313 311 309 308 310 309 311 311 311 309 311 308 309 310 311 309 312 313 319 319 313 318 313 311 311 308 308 305 313 315 311 304 310 307 309 309 310 310 312 313 311 307 308 307 307 307 308 311 317 323 322 324 326 326 322 308 302 314 327 327 328 329 331 333
310 309 309 309 309 309 309 311 310 310 309 306 309 308 307 309 310 309 307 305 305 302 310 312 312 309 311 311 309 309 308 308 308 305 308 307 310 310 310 311 313 312 316 313 317 312 310 312 315 312 308 313 312 307 315 310 309 313 313 308 309 311 312 313 312 308 307 308 305 306 310 322 323 324 323 325 319 308 306 324 332 329 330 331 329 329 333
310 310 309 309 309 309 309 310 310 309 309 308 308 305 306 309 310 308 303 300 303 301 303 303 304 302 305 303 303 304 307 308 308 307 307 305 313 311 309 307 315 312 313 317 311 316 312 309 311 316 310 309 314 316 311 314 317 315 311 313 309 311 308 309 307 312 312 310 306 304 297 316 325 323 321 323 318 316 325 331 331 328 328 328 331 331 332
311 310 310 309 309 309 309 309 310 310 309 309 307 305 303 310 309 309 308 304 300 297 301 311 310 310 309 307 308 308 306 305 309 307 309 309 313 308 303 305 306 309 311 314 309 312 315 311 315 313 317 314 319 314 309 311 314 323 317 316 310 318 307 309 310 313 308 305 303 303 318 321 324 321 316 320 325 329 332 326 327 331 328 328 330 333 334
311 310 310 310 310 309 308 308 309 309 309 309 308 307 303 307 308 308 308 307 301 298 301 305 306 304 304 305 304 305 306 308 311 311 306 306 312 309 309 308 308 307 312 316 315 316 317 314 316 313 311 313 318 310 318 309 305 319 319 317 306 319 313 316 308 316 311 313 315 320 325 325 325 324 326 330 330 331 331 328 328 328 328 331 328 330 333
310 310 310 310 310 310 309 309 309 308 308 308 308 306 302 304 306 309 308 301 304 304 306 305 307 307 309 310 311 310 308 308 307 306 307 303 304 308 307 307 308 314 314 317 312 312 314 312 313 317 315 318 316 314 316 312 308 315 312 317 317 320 322 327 317 314 321 321 321 323 324 324 326 327 327 329 327 327 328 327 326 329 331 329 328 329 332
310 310 311 310 310 310 309 309 309 309 308 308 308 306 304 305 306 306 305 303 300 299 304 307 304 304 306 305 310 313 312 311 311 310 310 308 301 304 309 310 310 310 315 317 318 312 312 312 313 317 314 319 318 312 309 310 312 316 315 315 317 323 319 317 312 322 312 306 326 321 324 326 326 326 327 329 329 335 330 330 331 330 330 328 331 333 335
309 310 310 310 310 309 309 309 308 308 309 308 308 308 308 306 308 307 302 297 301 299 294 299 301 305 308 309 312 311 312 315 316 314 312 310 307 304 308 314 316 314 317 316 319 316 316 312 313 314 312 321 318 312 320 313 314 317 311 315 317 317 321 317 318 319 313 314 326 325 324 326 327 327 325 325 329 332 333 335 336 340 338 334 336 336 335
309 310 310 310 309 309 308 308 308 308 308 309 308 306 304 304 308 309 306 304 302 300 295 296 301 308 310 308 308 310 314 314 314 314 313 313 311 310 309 311 313 318 317 316 316 313 312 313 314 314 311 315 321 314 316 320 318 319 315 318 320 323 321 313 319 315 318 320 323 323 324 324 327 328 331 331 330 333 334 335 335 334 335 336 335 333 333
310 310 310 310 309 308 308 308 308 307 307 309 307 308 307 307 309 307 304 303 299 297 299 298 304 307 309 307 311 313 314 313 313 313 313 314 313 313 312 311 310 311 311 312 315 314 313 312 311 311 314 315 320 318 319 319 319 317 316 319 321 318 315 320 318 315 313 313 319 322 316 317 322 323 326 329 333 336 334 334 333 334 336 336 334 334 336
310 310 310 309 308 309 309 308 308 308 309 309 308 309 310 308 310 310 310 308 302 297 297 298 299 304 310 308 311 312 312 313 314 313 312 312 313 313 312 312 312 310 312 311 309 310 310 308 310 317 316 318 315 314 319 321 321 318 317 319 320 318 322 319 314 315 312 319 322 330 327 325 326 325 328 328 331 333 332 332 331 336 338 337 336 335 335
310 310 309 309 309 309 309 309 308 309 309 308 308 308 308 311 312 311 309 309 307 302 300 302 305 304 303 306 310 309 312 312 312 312 312 312 312 312 312 312 312 312 312 313 312 312 311 313 316 314 315 322 316 316 317 314 314 311 317 322 321 326 325 323 322 321 321 324 323 326 327 323 325 328 331 331 332 332 329 332 332 334 337 337 335 336 335
310 310 309 309 309 309 309 309 308 309 309 308 307 305 302 306 309 309 310 309 307 305 298 298 295 303 309 306 306 307 308 310 311 312 312 312 311 312 312 312 312 313 313 311 311 307 309 310 312 314 316 320 314 316 314 314 314 317 321 323 324 328 327 330 327 322 323 329 331 333 331 329 329 331 332 332 334 329 327 329 333 334 335 337 336 336 336
309 309 309 309 309 309 309 308 309 308 308 307 305 300 299 297 305 310 308 309 310 305 301 301 298 304 303 309 307 306 307 309 310 310 311 312 312 313 314 313 313 313 309 310 309 309 311 309 310 312 316 316 316 314 312 314 313 315 319 322 325 323 322 325 326 329 328 329 330 329 328 329 329 326 326 333 334 331 332 331 335 338 338 339 338 337 334
309 309 309 309 308 308 308 308 308 308 308 305 301 302 302 305 308 310 310 309 310 304 300 295 297 300 301 304 307 309 308 309 310 312 313 313 312 313 314 313 311 313 312 310 311 311 309 311 309 312 314 321 318 312 313 312 313 315 321 322 323 326 326 327 327 328 328 330 328 326 323 325 327 323 321 326 333 332 332 337 338 340 339 339 338 337 336
309 308 308 308 308 308 308 308 308 308 307 308 310 310 310 310 311 310 310 311 308 303 303 298 295 299 298 303 306 309 308 308 309 311 311 315 312 314 311 314 313 312 316 310 309 308 311 310 312 308 312 319 315 314 312 312 314 320 321 321 322 328 328 328 326 327 330 330 329 324 321 321 324 330 330 334 335 334 335 336 337 338 339 339 338 338 338
308 308 307 308 308 308 308 308 308 308 309 307 304 306 311 312 311 310 312 311 305 304 303 297 295 297 299 307 302 307 308 304 305 308 306 314 316 313 312 312 313 309 312 307 310 309 311 311 309 310 313 312 315 311 308 314 318 319 321 324 325 326 328 327 326 326 328 329 329 326 326 327 330 333 335 334 335 337 338 336 336 334 332 333 334 336 338
307 307 307 307 307 308 308 307 308 308 306 307 307 310 311 310 312 313 311 308 299 298 299 300 300 296 297 300 300 304 309 305 304 307 304 312 315 311 313 309 311 306 310 314 309 308 307 309 314 309 306 313 312 307 309 313 317 319 320 321 324 326 324 322 325 326 325 329 327 329 328 327 327 327 331 333 334 336 336 335 333 332 331 332 334 336 335
307 308 307 308 308 308 309 307 307 304 303 304 306 310 310 311 311 313 313 311 306 299 297 298 299 296 298 294 297 304 308 304 308 308 308 308 307 311 312 310 305 308 316 309 305 308 306 312 310 304 310 307 307 310 312 315 315 317 318 319 322 322 322 323 325 326 330 332 329 329 326 326 325 327 334 336 336 336 336 333 332 333 333 335 337 336 336
308 307 307 307 308 308 303 303 307 307 305 310 309 311 312 312 314 314 311 307 309 310 300 298 296 296 299 299 302 306 306 300 308 305 307 305 304 312 309 308 305 310 308 307 307 305 309 315 308 305 306 305 310 317 318 318 318 318 318 319 320 322 323 321 324 324 323 323 325 328 327 327 327 331 335 335 336 337 334 332 333 332 334 337 337 336 337
306 306 307 305 303 299 299 303 306 308 309 309 310 308 309 308 302 303 303 300 304 305 302 300 295 299 304 300 296 307 305 304 308 303 305 308 305 305 310 308 308 309 302 304 307 314 312 310 307 305 307 312 316 318 319 321 321 322 321 321 320 322 323 324 326 321 319 321 323 326 328 328 328 333 333 334 338 336 335 336 336 334 337 339 338 338 336
305 306 303 303 300 299 299 306 309 309 310 310 309 304 302 306 302 298 298 300 302 296 301 299 296 301 300 299 301 310 305 303 302 305 301 309 305 304 310 302 310 309 304 305 309 313 304 307 309 307 304 310 311 316 321 323 325 330 329 328 324 324 326 325 327 323 320 320 322 327 328 327 327 329 333 335 338 338 338 338 337 337 339 340 339 338 337
304 299 299 299 298 300 306 309 309 308 308 302 305 302 297 303 296 293 303 296 296 299 301 296 302 302 302 300 301 303 311 305 301 301 302 305 311 303 310 308 310 305 301 301 306 311 304 302 306 305 303 309 312 324 326 327 327 329 331 332 332 332 331 329 329 331 328 325 322 322 325 329 329 330 335 335 337 338 337 339 340 341 342 340 338 337 336
302 301 300 298 301 304 305 308 308 307 303 298 299 298 298 293 299 300 298 294 294 297 303 300 303 301 304 305 305 301 311 311 311 310 307 302 312 310 304 302 316 304 302 301 308 309 307 304 304 304 305 316 318 320 323 323 326 326 328 329 331 332 334 335 334 331 328 328 328 327 328 330 330 330 334 338 339 340 339 338 339 340 340 338 337 338 336
305 303 304 306 306 307 306 305 303 300 300 302 295 291 294 295 299 298 298 292 294 299 301 302 299 301 303 304 305 306 308 313 312 309 305 301 309 305 304 306 308 302 299 307 313 308 307 302 302 303 310 316 317 320 321 320 322 323 323 327 328 331 331 332 334 336 336 331 329 329 331 332 330 331 336 338 339 341 340 339 339 339 338 339 339 337 334
307 308 307 303 303 302 304 295 300 299 289 290 289 286 292 290 293 293 295 299 303 300 303 307 306 308 309 309 307 309 308 313 307 306 304 302 309 309 304 303 304 298 304 313 308 305 302 302 301 306 312 316 318 319 319 321 321 323 324 326 327 328 330 331 332 333 336 336 334 332 332 332 332 333 335 339 341 342 341 340 339 338 339 338 337 334 332
306 305 301 301 298 299 300 286 299 294 289 291 287 281 288 289 292 295 293 296 300 299 303 300 301 302 299 307 303 306 307 310 310 308 305 308 305 303 302 298 300 307 312 305 305 300 303 307 308 310 313 315 316 316 318 319 321 322 323 325 327 329 330 331 332 332 333 335 335 334 333 333 334 335 337 339 339 341 339 339 339 340 339 337 334 333 332
299 298 298 296 291 298 295 285 298 291 284 288 291 290 291 289 292 294 293 299 299 297 302 303 303 302 301 305 306 306 306 303 314 303 300 307 301 303 299 297 304 307 302 300 302 304 304 304 309 309 309 309 312 314 316 317 318 319 320 324 325 326 327 328 330 331 332 333 334 333 332 334 335 336 336 337 339 341 339 338 339 338 336 334 332 331 330
296 292 292 287 283 289 289 286 289 286 292 295 293 294 294 295 296 295 299 300 299 301 300 302 302 302 301 305 300 302 306 306 301 303 305 306 299 297 305 310 306 300 299 300 299 300 301 302 304 306 308 309 311 312 314 314 315 317 318 318 322 324 325 327 328 331 332 333 333 334 333 335 335 336 336 339 340 341 340 340 340 337 335 333 330 329 329
296 298 294 293 286 289 296 287 290 293 296 296 297 297 297 298 298 299 301 302 301 302 302 304 304 303 301 301 303 303 305 306 300 304 306 298 298 301 309 301 296 297 294 295 298 300 301 304 305 308 309 309 311 312 313 314 314 314 315 316 318 321 325 326 328 330 333 334 334 334 334 335 336 338 339 339 339 340 340 340 338 337 334 332 330 329 328
290 298 296 284 282 289 288 293 297 297 298 298 298 298 299 301 299 298 301 302 302 303 302 301 300 301 300 309 303 299 301 304 299 300 303 300 304 298 298 297 297 299 301 297 298 300 303 305 306 307 309 310 310 310 311 312 314 314 315 315 316 317 322 325 326 328 331 333 334 334 335 336 337 338 337 338 338 339 339 338 337 335 333 332 329 328 327
299 295 288 289 293 293 293 296 295 293 295 297 298 298 298 297 297 299 300 302 301 301 302 300 300 299 296 303 300 299 296 303 294 294 303 299 294 292 293 292 295 294 301 302 302 303 304 306 308 308 308 309 309 309 310 311 313 314 314 314 314 315 320 325 327 327 329 331 333 335 336 338 338 337 337 337 336 336 338 337 335 334 333 330 328 327 327
294 291 294 291 291 293 295 296 294 292 294 295 296 296 298 297 297 299 303 300 302 301 302 302 304 298 299 300 293 296 296 300 299 300 298 295 296 298 296 292 295 297 298 302 302 305 307 308 309 309 310 310 309 309 309 311 313 314 315 315 315 316 317 324 326 327 328 330 332 332 334 334 336 336 336 336 336 336 335 335 334 333 332 330 329 328 327
298 295 294 298 293 293 294 290 290 291 292 293 294 295 296 296 297 298 303 301 301 299 298 295 297 296 294 294 294 287 291 302 299 296 294 295 299 298 295 295 298 301 303 304 305 305 306 308 307 308 310 310 309 309 309 310 312 314 314 314 313 314 316 321 327 327 327 329 331 330 332 334 335 336 336 336 334 332 332 332 332 331 330 330 329 329 327
290 287 290 295 297 296 295 296 295 294 295 296 296 297 297 296 299 300 304 301 299 295 294 297 296 292 290 288 293 296 301 296 294 296 294 298 301 297 297 300 302 304 304 304 305 305 306 306 308 308 310 310 310 311 310 310 312 313 313 312 313 313 315 319 326 327 327 327 329 331 333 333 334 334 333 333 332 330 328 328 329 330 329 329 329 330 328
Wind_Speed
18 18 20 21 22 22 21 23 24 25 27 15 10 9 5 3 4 4 5 6 5 6 7 5 6 8 4 3 3 4 5 7 2 5 5 7 7 7 7 7 7 9 8 4 6 6 6 9 11 8 13 10 14 7 16 15 14 13 11 14 12 10 8 9 11 9 13 9 5 4 3 4 8 10 11 10 12 13 11 11 7 7 4 6 5 8 5
17 18 19 20 21 22 21 22 23 23 21 13 12 8 4 3 1 6 3 4 5 6 7 7 8 8 3 5 4 5 6 6 6 8 5 6 5 8 6 6 10 6 2 5 6 4 7 9 11 10 9 10 9 11 11 14 11 13 9 12 13 9 10 9 9 9 7 10 7 6 5 6 9 10 12 15 14 13 10 7 1 9 8 11 8 9 6
17 18 20 20 20 22 21 22 23 23 20 14 6 5 4 4 1 2 4 5 5 5 3 3 7 7 6 5 8 7 8 6 8 6 6 5 7 6 7 8 2 6 5 7 7 7 9 2 10 7 6 5 5 5 12 16 11 14 9 11 12 12 10 11 12 14 15 16 14 13 11 12 10 14 15 16 18 15 9 12 8 9 7 11 10 8 3
17 18 19 19 20 21 21 23 24 24 22 14 5 4 4 3 3 5 5 5 6 4 2 4 2 6 5 7 5 4 5 7 6 6 7 6 6 8 6 4 5 8 7 8 9 9 9 9 3 6 7 7 5 4 9 14 13 15 9 10 11 10 11 12 13 12 12 12 10 10 8 9 14 13 14 15 17 17 14 12 9 11 5 8 7 9 8
18 19 19 18 20 21 21 23 24 25 23 12 5 4 4 5 3 4 7 5 5 3 4 3 5 2 1 4 2 7 5 0 4 4 5 6 5 5 7 4 6 4 5 7 7 7 7 10 8 6 6 3 2 8 6 10 14 5 10 13 10 9 11 14 17 19 15 14 14 4 8 12 13 16 18 18 17 17 18 14 11 5 6 10 6 5 9
20 20 19 19 20 22 22 23 25 26 25 17 3 4 1 4 3 2 5 4 4 7 7 3 3 0 4 1 2 4 4 3 2 4 5 3 4 6 6 6 2 5 5 4 5 6 4 5 6 5 1 4 4 7 7 8 10 7 11 14 12 9 11 13 15 17 19 15 5 2 8 10 12 15 15 18 17 17 17 16 13 9 11 11 3 8 9
20 20 20 20 21 24 24 22 24 27 27 21 5 6 2 3 3 2 4 4 2 4 6 1 4 4 5 2 4 6 5 3 3 3 2 5 5 5 4 4 5 6 3 4 2 5 6 7 2 4 6 5 3 5 7 5 8 13 12 13 10 9 11 12 14 15 16 16 11 4 9 9 11 13 15 15 17 17 18 14 7 12 6 3 4 4 6
19 20 20 20 21 23 21 22 23 26 29 18 3 7 5 5 5 2 6 5 4 2 3 4 4 7 5 6 4 4 3 3 4 1 3 4 4 4 4 7 8 6 3 2 0 7 8 6 5 5 10 4 3 3 3 1 7 10 12 11 9 10 9 11 9 11 14 15 13 9 9 8 11 10 7 11 13 13 10 7 5 4 5 3 3 3 6
19 19 19 20 19 20 20 21 22 25 26 6 8 8 7 4 3 3 5 4 1 2 5 5 6 6 6 8 4 4 2 3 6 7 4 6 4 6 8 10 9 3 3 1 4 7 10 9 8 11 9 7 6 5 3 3 3 10 10 10 9 13 5 6 10 10 11 12 13 14 13 11 12 12 11 10 11 13 10 10 6 9 6 6 5 5 7
17 18 20 19 17 18 19 19 20 23 21 8 7 6 8 5 1 3 4 4 3 4 2 5 3 8 1 3 4 2 3 4 6 5 4 1 2 5 9 9 8 2 2 4 9 13 13 13 13 10 10 9 10 8 9 8 6 5 9 9 10 12 9 8 9 11 10 11 12 14 13 12 13 14 14 12 12 10 9 4 6 5 2 6 7 5 6
16 17 19 18 16 17 17 17 18 20 15 10 8 7 8 7 6 6 4 6 4 3 3 4 8 4 2 3 3 1 3 4 3 6 1 2 2 7 9 8 6 5 5 7 11 12 14 14 13 10 10 12 12 10 8 9 10 9 7 8 9 12 12 10 9 10 10 10 12 12 12 14 11 2 3 8 12 10 10 9 8 6 7 2 3 4 3
15 16 17 16 15 16 17 16 16 17 15 8 5 5 6 6 6 4 5 6 2 1 5 2 3 4 4 4 4 5 5 4 5 4 8 8 11 10 8 6 5 3 8 11 13 14 15 12 11 8 10 11 11 9 8 8 8 10 9 9 9 12 12 10 8 11 9 8 10 12 16 13 5 2 4 6 6 3 4 5 2 6 6 3 3 1 1
15 16 16 16 15 16 16 14 14 15 16 10 6 6 7 7 4 4 5 6 4 1 4 2 1 4 4 5 6 5 6 7 7 8 9 10 12 9 5 6 7 7 11 13 14 13 10 4 7 7 9 10 8 8 6 4 5 9 10 10 8 10 12 8 8 9 5 9 10 13 12 6 5 5 4 5 4 4 5 4 4 5 6 6 5 2 4
14 14 15 15 15 15 14 13 13 14 15 14 6 5 6 8 6 4 5 5 4 1 3 6 5 3 2 4 6 8 8 8 7 7 9 7 8 10 8 5 7 8 9 10 11 9 7 5 5 7 7 10 7 9 4 3 4 5 9 11 10 8 9 9 7 6 9 9 12 12 6 4 6 5 6 8 7 9 9 8 9 9 6 7 5 5 5
12 13 14 15 14 14 13 13 13 13 13 16 6 4 6 7 6 3 4 4 6 7 4 4 4 4 5 4 5 6 5 5 6 5 3 5 9 6 7 7 7 8 7 7 6 5 6 3 8 12 9 10 8 7 4 4 5 3 2 6 9 9 10 8 10 8 10 12 12 11 9 12 9 3 6 7 2 4 3 6 4 5 8 7 6 7 8
12 12 13 14 13 13 14 13 11 12 11 16 6 4 4 7 5 4 4 3 5 4 3 6 5 6 5 5 5 5 5 6 5 6 8 8 8 5 3 7 8 6 6 6 5 6 5 6 7 11 9 13 12 6 5 4 3 5 4 2 7 10 8 5 12 6 10 9 12 11 11 8 4 12 10 8 4 5 5 7 7 8 9 8 7 7 8
11 11 11 11 12 13 13 12 10 9 9 13 8 5 3 7 6 6 5 3 4 8 7 7 7 6 6 6 6 4 1 3 5 5 5 3 5 8 7 10 7 5 5 7 6 6 6 8 8 8 4 3 5 6 9 8 7 3 6 2 4 8 10 10 12 10 8 11 11 12 9 3 5 9 10 9 5 6 6 7 5 12 11 10 8 8 8
10 11 12 12 12 11 12 11 11 7 9 13 9 4 3 5 6 7 5 4 5 6 3 4 5 4 2 5 5 5 3 4 4 3 7 8 8 4 8 8 6 2 3 8 4 7 8 6 9 7 8 3 1 3 10 8 13 9 2 3 4 2 6 9 12 11 11 13 10 8 4 5 4 7 10 8 5 5 8 7 4 9 9 9 8 7 8
10 10 10 10 12 12 11 11 12 11 10 11 10 4 1 4 6 7 5 6 4 5 2 3 5 9 7 6 8 7 6 5 5 5 5 6 1 7 10 5 4 2 1 4 4 8 8 7 3 4 6 6 5 7 3 9 11 7 5 6 5 4 3 5 5 10 12 7 9 8 1 5 5 6 9 7 8 8 6 4 0 7 8 8 7 8 8
11 10 10 9 9 10 11 11 12 11 10 9 9 5 5 3 4 6 6 5 5 8 11 12 8 11 7 8 6 5 3 6 5 6 5 5 7 11 3 5 3 4 7 4 8 4 5 9 5 1 7 8 4 3 5 5 3 4 9 5 7 3 5 3 8 6 3 5 8 5 5 3 6 11 6 2 5 3 3 5 4 6 8 9 6 6 7
10 10 10 9 8 9 10 10 10 10 10 8 9 6 5 0 4 4 4 4 5 7 3 4 4 5 5 7 7 8 8 7 4 3 4 6 6 5 4 1 5 5 2 3 6 2 2 6 3 5 2 5 2 3 6 4 7 2 3 7 12 7 7 5 3 2 5 9 10 4 2 4 11 10 3 7 1 3 2 5 5 3 7 7 7 5 6
11 10 10 9 9 9 9 10 9 8 10 9 10 6 5 3 4 4 4 4 6 8 8 11 12 13 14 14 14 13 12 11 10 6 6 6 4 5 5 4 6 4 3 4 5 5 3 2 2 5 6 5 3 7 2 7 11 4 1 3 10 7 9 4 6 2 5 4 5 6 2 3 11 4 7 3 3 2 2 2 6 6 6 6 5 7 7
10 10 10 10 9 9 9 9 10 9 9 9 9 5 6 7 6 5 6 7 7 10 12 13 11 12 12 13 13 12 13 13 13 12 9 7 7 5 5 5 3 1 3 3 4 5 5 5 3 4 5 4 4 4 6 6 8 4 5 6 4 3 1 3 4 4 1 4 1 2 2 4 7 3 4 3 3 2 1 4 4 4 5 5 4 7 7
10 10 9 10 9 9 8 9 9 9 8 8 8 7 7 6 7 6 6 7 7 9 9 8 5 3 1 1 4 7 8 8 10 10 9 9 9 6 5 6 3 3 2 2 4 6 5 5 4 3 5 2 2 7 9 8 8 0 2 5 4 2 3 4 6 5 7 4 8 8 6 7 8 3 2 2 3 3 2 3 3 4 4 5 3 4 7
10 9 10 9 9 8 8 8 9 8 6 7 9 7 7 6 4 4 5 5 3 5 6 3 8 6 2 0 2 5 7 6 7 9 8 11 12 9 2 8 4 5 3 2 4 5 3 5 3 3 6 2 3 5 3 5 2 2 8 5 5 5 5 6 6 5 9 3 4 3 5 7 9 7 5 5 4 2 2 4 4 5 3 2 5 5 6
10 9 10 9 8 8 8 9 9 8 8 8 10 8 7 7 6 5 5 6 5 4 5 5 1 3 3 7 7 7 6 7 8 10 12 12 13 14 13 8 5 2 5 4 5 5 4 5 4 4 5 1 1 6 3 3 5 3 5 3 6 3 5 6 5 6 3 5 4 5 5 5 6 5 2 3 5 6 5 4 4 3 4 4 4 1 5
10 10 9 9 9 8 9 9 8 7 8 8 9 8 8 7 6 6 6 4 4 4 6 6 5 6 8 12 11 6 5 6 7 9 11 13 13 12 10 10 9 7 6 6 5 5 4 5 5 6 5 3 3 6 5 4 5 5 5 2 3 4 6 1 5 5 7 3 5 9 6 5 7 10 7 5 3 4 6 5 4 3 4 5 6 6 5
10 9 9 9 9 8 9 9 8 7 7 8 10 8 7 7 6 4 5 7 6 6 8 9 9 10 14 15 5 3 5 5 6 7 9 11 13 11 10 10 8 7 6 5 6 6 6 7 7 5 6 6 5 6 7 4 3 7 7 5 4 4 2 5 2 2 1 5 5 5 4 6 2 5 8 6 5 4 5 4 5 5 5 6 7 8 7
9 9 10 9 8 9 9 10 8 6 5 9 8 8 6 3 3 1 4 4 5 5 6 10 12 11 5 4 6 7 4 4 5 7 8 10 12 12 11 11 9 8 7 6 6 6 6 6 5 4 3 6 4 5 4 9 7 8 5 5 4 2 1 2 4 3 5 8 9 6 6 7 5 4 3 4 4 3 3 2 2 4 5 5 6 7 9
10 9 9 9 9 10 10 10 8 6 6 8 6 6 4 4 1 3 4 4 3 3 5 7 6 2 8 6 4 2 4 5 7 8 10 9 10 11 11 10 10 9 7 6 5 7 7 7 7 7 9 6 6 5 4 3 8 4 5 2 4 2 2 4 3 1 1 6 6 8 6 7 6 5 4 4 3 2 1 3 4 5 5 5 6 7 8
10 10 9 9 10 10 10 10 8 6 8 6 5 4 4 3 4 3 5 4 2 4 5 5 9 8 8 4 5 6 6 6 6 7 10 11 10 11 9 9 8 8 8 8 7 8 6 6 6 7 7 9 6 6 5 7 6 4 4 3 5 3 3 4 2 2 4 4 5 4 5 4 4 4 2 2 2 2 2 3 4 5 7 7 8 8 7
9 9 9 10 10 11 11 11 10 8 6 6 6 5 4 5 3 4 4 4 3 6 5 7 7 5 4 3 1 4 7 7 7 6 6 7 9 9 9 10 8 9 8 7 6 6 8 8 8 6 6 4 4 7 7 8 7 3 6 4 4 4 4 5 4 4 3 3 2 1 3 5 3 2 3 3 3 5 6 7 8 9 8 7 7 7 7
9 10 10 10 11 11 11 11 11 9 7 9 14 16 16 17 12 8 7 5 5 4 3 4 6 5 4 3 6 1 3 5 6 5 5 8 7 8 9 9 8 7 8 6 6 5 5 8 7 9 9 5 6 6 8 9 8 5 4 2 4 3 1 3 4 5 5 3 1 4 3 2 1 3 5 3 4 6 7 9 10 9 9 10 10 9 8
10 10 9 10 11 12 12 11 12 14 13 8 7 6 5 11 10 12 9 5 4 3 2 4 5 5 7 5 6 4 4 4 3 2 4 5 4 6 6 7 8 7 8 10 7 7 7 6 8 8 6 9 8 7 10 9 9 10 6 9 4 3 1 2 1 2 4 3 2 0 3 5 6 5 2 4 6 6 7 9 11 11 11 11 10 9 10
8 9 9 11 12 12 13 12 8 5 5 5 5 4 8 4 5 7 10 6 4 4 4 4 4 7 6 3 4 4 5 5 3 2 4 3 4 6 5 6 7 7 7 8 8 8 8 8 5 7 10 6 8 10 9 9 10 10 8 9 5 1 1 2 0 1 2 1 1 3 2 2 4 7 6 6 6 7 8 10 11 12 11 10 10 11 10
8 7 9 11 14 12 7 5 6 5 5 5 3 9 7 2 6 5 7 7 5 5 5 4 4 6 5 5 4 3 5 6 3 4 3 4 5 5 6 6 7 8 4 7 8 8 9 7 7 10 7 10 11 8 8 9 11 10 8 8 4 2 5 4 4 1 3 3 3 3 2 2 5 8 6 6 8 9 10 11 11 11 10 10 10 10 9
7 8 10 13 8 5 6 5 4 6 1 4 6 9 9 7 2 3 5 5 5 5 6 5 7 7 6 5 3 3 4 3 2 4 4 5 4 4 6 6 8 4 7 8 8 9 9 7 9 9 9 10 8 7 7 7 9 9 8 8 7 4 4 5 3 3 3 4 2 1 2 5 8 7 7 8 8 10 11 12 12 12 12 12 11 10 10
7 10 6 4 4 5 4 5 2 5 10 7 6 6 5 5 4 4 3 4 4 5 6 5 8 8 6 6 5 3 4 3 2 4 2 1 3 5 6 6 6 5 8 7 9 8 6 7 8 10 9 9 7 5 7 7 6 6 7 7 7 6 5 4 3 3 5 5 5 5 5 6 8 7 9 10 11 12 11 10 9 9 9 10 10 11 11
8 4 4 3 4 4 1 4 4 6 5 4 5 3 4 4 4 4 5 4 3 4 5 6 7 7 7 7 7 4 4 5 6 3 4 4 3 4 5 7 4 5 7 7 7 11 9 8 7 8 11 8 9 10 7 5 4 3 4 5 6 6 6 6 5 7 8 8 6 7 8 8 11 12 10 9 9 9 8 7 8 8 8 10 11 11 12
2 3 2 2 4 1 4 2 4 4 4 5 5 5 4 4 5 3 5 4 4 5 4 6 7 7 6 7 5 4 3 3 4 4 4 5 2 4 1 3 2 3 7 9 6 9 8 9 8 7 10 9 6 7 7 6 4 5 5 5 6 6 6 6 7 7 9 10 11 11 11 12 10 9 8 9 9 9 9 8 8 8 10 10 12 12 12
1 2 2 3 3 3 3 4 4 4 4 5 4 3 3 4 5 2 2 4 4 3 4 5 3 4 5 6 6 7 3 1 4 4 4 5 1 3 3 6 2 4 4 6 5 6 6 7 7 8 3 7 6 6 6 6 6 7 7 8 8 7 7 8 9 9 10 10 10 10 10 10 9 9 8 9 9 9 9 9 9 10 12 13 13 12 11
4 4 4 5 5 4 4 3 3 4 3 3 4 5 5 3 3 4 4 5 4 4 6 5 6 6 4 5 5 5 5 1 4 3 3 5 3 4 5 3 2 5 5 1 1 3 6 8 9 4 6 6 8 6 7 6 7 9 9 10 9 8 9 9 10 10 10 11 11 10 9 10 10 9 7 7 8 7 8 9 10 11 12 12 12 12 12
5 7 4 4 3 4 4 3 5 3 2 4 3 2 3 4 6 6 5 5 2 3 3 2 2 3 4 4 5 5 4 1 3 2 4 3 1 3 4 5 3 7 4 3 3 5 9 9 7 4 4 6 7 9 8 8 8 8 9 8 8 9 10 11 11 12 11 11 12 11 10 10 10 9 7 6 6 7 8 9 11 12 12 12 12 12 12
2 2 4 3 3 4 3 2 4 3 1 3 4 5 6 6 6 5 4 3 3 4 2 3 1 4 2 3 3 1 3 5 4 3 4 3 3 4 4 5 7 2 2 4 4 9 6 3 5 6 8 8 7 9 10 10 11 11 9 9 9 9 10 11 11 12 12 11 11 11 10 10 9 8 7 7 8 10 10 10 11 12 14 14 13 12 12
2 3 3 2 1 1 3 1 3 3 4 6 5 5 4 6 4 6 4 6 1 1 1 3 4 4 5 1 2 3 2 2 3 3 2 1 3 3 4 3 3 2 5 8 5 4 5 3 7 8 9 9 10 10 11 11 11 12 13 13 10 10 11 11 11 11 11 10 11 11 11 10 9 9 8 8 8 10 12 13 13 14 14 14 14 13 12
3 1 1 2 1 2 2 1 2 3 5 4 5 6 5 4 2 1 5 3 3 3 4 2 4 4 6 2 3 1 1 2 4 4 3 3 5 5 2 4 4 6 7 8 7 7 2 5 5 7 9 9 10 10 10 10 10 11 12 13 14 13 11 12 11 11 11 9 9 10 10 9 9 9 9 9 9 10 11 13 13 14 15 15 14 14 13
2 1 1 1 2 3 4 3 6 3 3 2 4 3 4 2 3 3 1 2 5 2 3 3 5 3 6 3 3 3 3 1 4 2 2 5 4 2 0 4 5 5 6 8 9 2 4 4 5 6 8 10 11 11 11 11 11 11 12 12 13 15 13 12 11 11 10 8 8 8 8 8 8 8 9 10 10 10 12 14 14 15 15 15 15 14 13
2 1 1 2 3 2 6 6 4 3 2 4 2 2 3 3 5 6 4 2 3 4 4 3 5 3 5 3 2 6 4 3 5 5 3 3 1 5 3 3 5 5 5 4 4 4 2 4 6 7 8 9 11 11 11 12 13 13 13 13 15 16 16 12 11 10 10 9 7 7 6 7 8 9 10 11 12 11 13 13 15 15 14 15 15 14 14
2 1 2 2 3 2 4 2 2 5 5 5 4 5 6 6 7 4 0 3 5 5 3 4 4 3 6 2 3 4 6 3 5 3 4 4 4 5 5 5 7 8 2 3 3 3 4 4 5 7 7 8 9 10 11 11 12 12 12 14 14 14 16 13 12 11 10 7 5 4 4 6 8 9 11 12 12 12 13 14 15 13 14 15 15 14 14
3 2 2 4 4 6 5 4 4 6 4 4 5 7 6 7 6 5 2 5 4 4 5 4 1 4 5 3 3 4 5 4 5 3 4 6 5 4 5 8 5 1 3 3 3 3 4 5 6 6 5 6 8 9 10 12 12 12 13 14 13 13 15 16 13 10 9 7 5 5 5 6 8 9 12 13 13 14 15 13 13 14 14 14 14 14 14
2 3 4 5 6 4 0 5 5 5 5 6 6 6 5 7 6 6 2 4 4 6 5 7 3 3 3 3 3 3 3 1 3 7 8 8 5 5 7 8 2 3 4 3 1 1 3 4 5 6 6 6 7 8 9 10 12 13 12 11 12 12 14 16 12 9 8 7 5 3 5 7 7 10 11 13 15 16 15 13 13 13 14 13 13 14 14
1 3 4 5 6 7 7 7 6 7 6 6 5 5 4 7 6 6 1 4 5 7 8 6 5 4 3 6 6 5 3 2 5 5 7 7 5 7 5 4 1 2 1 1 1 2 2 3 3 5 6 7 8 8 9 10 11 12 12 12 13 13 14 15 11 6 6 5 3 3 4 7 9 10 12 14 17 15 14 13 12 13 13 12 12 13 13
Wind_Direction
339 339 343 342 339 339 339 342 343 345 347 352 344 323 265 285 32 82 167 196 243 260 213 172 205 224 222 47 240 243 238 262 254 253 198 237 221 246 233 249 250 232 252 245 251 224 233 211 213 212 210 225 206 198 185 196 192 196 202 204 199 194 229 212 240 245 215 142 132 133 174 218 233 229 250 258 233 220 234 234 231 230 163 230 223 251 270
340 343 345 341 340 340 340 342 343 344 356 341 320 293 334 328 85 144 164 203 241 255 206 192 202 210 173 218 249 188 258 236 225 229 219 239 185 227 236 239 232 277 231 259 253 181 234 193 223 213 213 227 203 205 198 185 199 201 179 213 156 200 204 233 205 222 232 223 178 192 153 216 236 235 214 227 243 241 251 290 337 246 222 249 254 258 272
343 348 345 341 342 342 343 344 341 342 346 346 317 317 331 299 260 259 149 194 235 263 326 249 183 183 199 197 214 193 205 221 251 271 250 218 251 243 238 247 260 234 238 253 256 249 263 233 201 280 186 207 99 196 208 186 212 211 180 206 147 216 189 200 221 207 208 210 203 210 202 217 224 234 226 210 223 226 216 229 213 245 215 224 253 268 299
346 349 345 344 345 343 345 343 341 340 344 340 288 282 271 242 205 155 170 202 213 264 262 306 237 168 192 206 194 225 222 178 208 241 254 252 236 247 282 260 248 260 247 244 240 243 224 242 165 210 194 187 141 174 207 200 212 204 194 195 173 217 208 203 224 234 228 228 230 215 233 211 219 203 211 201 212 219 224 237 229 237 193 223 239 261 272
350 349 343 349 349 346 347 345 341 340 340 347 304 275 266 314 268 147 183 174 248 224 200 197 220 206 158 232 160 212 226 312 208 165 241 162 259 256 240 228 234 195 247 252 252 231 220 210 244 246 247 161 129 157 197 206 218 195 180 195 206 217 225 212 220 234 252 256 234 171 207 239 221 212 206 209 207 212 217 225 235 219 248 252 228 229 269
351 348 346 353 351 352 352 348 344 341 337 339 289 292 276 260 76 308 17 299 180 197 194 215 208 37 247 277 219 239 233 211 254 181 236 295 241 266 152 230 223 314 292 309 251 187 214 206 211 212 162 276 194 173 173 200 176 164 206 195 217 216 229 218 223 228 237 250 342 194 217 239 249 225 207 201 198 203 215 221 231 208 237 265 213 175 230
353 350 353 354 354 356 355 350 348 343 336 328 280 316 53 333 357 25 354 262 6 337 32 282 275 225 237 255 234 243 241 246 41 328 318 251 187 319 199 152 359 333 302 256 273 27 243 167 98 18 1 328 302 193 158 174 183 194 208 201 205 225 231 228 214 231 231 229 234 237 233 224 240 247 208 199 197 200 212 217 205 221 239 114 126 182 243
352 352 355 355 356 359 356 353 352 347 336 316 27 32 332 29 338 21 336 288 298 263 230 226 226 230 162 239 188 273 274 287 343 335 278 233 124 5 8 5 352 346 359 244 228 56 20 7 326 6 333 317 48 342 319 76 172 194 202 194 177 217 203 216 215 232 230 222 219 221 226 232 236 229 222 204 200 204 212 202 165 187 177 207 145 181 246
352 350 354 354 357 1 359 356 356 351 337 21 20 52 23 354 344 326 319 262 155 253 226 217 229 230 179 232 157 243 227 320 349 305 253 276 333 2 6 349 336 346 340 154 69 11 341 316 297 299 296 293 5 319 83 320 197 196 196 200 171 205 207 182 215 228 227 210 214 216 224 233 242 215 203 194 193 198 187 212 180 207 207 202 221 240 254
349 349 355 354 358 2 359 359 359 356 337 21 6 33 9 332 43 310 296 277 108 258 151 234 232 224 114 357 49 300 60 346 343 291 132 255 352 15 351 344 321 321 68 70 2 332 314 305 302 298 287 274 278 267 270 274 268 210 210 194 197 198 207 201 195 220 227 201 208 209 211 226 233 225 202 198 206 223 188 135 176 225 224 204 222 266 61
345 349 356 356 359 3 1 3 1 1 359 28 18 19 9 13 339 326 261 277 185 247 262 214 239 44 340 67 322 308 289 319 335 298 88 336 122 356 339 333 337 324 43 2 328 306 291 290 292 284 264 261 258 260 258 253 243 242 228 196 210 197 212 210 195 219 213 172 199 198 210 218 221 102 79 207 210 186 195 195 192 177 215 296 5 43 66
345 348 356 358 2 5 5 4 2 4 0 7 357 16 9 344 315 284 306 273 195 136 247 309 1 32 318 1 313 307 297 304 311 317 290 296 304 313 318 328 336 296 20 328 314 305 291 260 254 250 251 249 248 251 259 241 228 216 236 231 202 203 204 221 197 218 204 167 181 203 217 222 82 79 75 70 73 144 199 79 155 164 199 218 221 210 121
344 347 356 358 3 6 7 4 2 3 359 352 6 15 0 347 325 339 317 301 289 26 248 142 19 308 312 309 301 293 306 297 288 282 276 285 294 296 314 323 311 335 331 319 311 302 297 274 239 230 231 221 224 233 184 131 181 200 216 227 234 201 205 210 208 225 182 193 198 216 214 90 108 91 102 90 101 119 161 193 197 199 199 191 205 140 110
342 346 357 357 3 5 7 7 5 2 358 345 357 6 4 3 5 352 351 320 286 24 333 289 241 238 316 316 323 306 293 275 274 273 273 267 282 294 307 313 336 330 314 315 294 293 278 211 287 267 249 249 208 216 118 128 94 179 212 214 227 235 212 215 205 198 205 213 210 220 83 142 139 132 180 180 178 179 200 231 184 180 178 183 180 145 144
341 345 357 354 360 1 3 7 7 3 359 341 332 359 11 9 7 339 329 293 298 308 272 266 32 12 323 310 338 316 274 286 287 249 259 277 274 277 296 326 331 319 310 308 314 304 278 278 223 227 222 233 217 227 200 209 113 104 203 218 221 223 234 195 221 191 222 217 212 219 222 229 180 177 149 169 128 182 163 262 129 158 171 187 174 169 148
342 344 351 350 357 1 4 3 6 3 3 338 332 0 20 6 342 325 322 313 316 266 94 14 1 330 317 307 331 320 315 304 312 301 274 249 247 285 315 346 323 303 282 271 278 291 280 265 245 235 211 235 217 246 252 265 192 102 91 149 224 213 222 267 227 181 206 215 223 216 224 232 234 161 150 139 137 147 121 234 210 177 183 175 182 166 154
343 339 342 349 357 358 1 3 354 3 358 353 346 349 360 4 354 338 323 289 267 283 335 317 312 304 297 270 214 214 347 315 354 308 280 244 12 328 324 343 302 244 305 296 269 266 255 235 235 258 243 334 230 222 223 249 259 179 91 112 217 212 206 204 220 225 210 218 216 223 230 182 98 127 139 134 122 141 180 219 222 149 174 167 178 163 159
336 339 341 343 347 351 360 357 347 360 9 349 334 342 350 356 348 327 272 273 294 280 289 352 322 272 262 1 332 8 298 274 250 265 260 293 294 338 346 338 338 283 291 280 284 259 259 253 250 233 244 126 189 164 242 222 244 253 274 16 330 267 227 209 218 202 217 231 227 236 158 87 104 116 120 118 121 167 204 231 80 149 154 161 164 160 151
326 336 341 342 341 342 349 360 352 7 14 356 339 304 27 5 347 335 298 271 250 259 34 13 307 293 314 303 283 299 307 313 316 292 293 264 122 347 296 300 306 295 346 299 288 256 257 250 241 274 254 172 195 249 146 211 221 224 236 260 283 273 242 232 225 229 218 214 247 233 325 49 106 104 113 125 164 193 221 72 175 139 141 145 163 152 147
319 325 332 339 342 340 340 348 354 356 359 1 340 339 327 345 355 358 339 315 307 283 288 287 283 276 290 288 287 275 248 216 234 267 288 280 32 332 274 201 146 286 262 265 254 253 261 251 248 276 239 245 206 13 248 246 251 195 234 224 238 239 292 257 233 202 164 196 242 245 235 118 165 128 108 329 248 81 123 115 85 127 138 142 136 146 148
314 316 320 330 334 334 337 339 351 354 351 2 347 334 324 46 334 346 329 307 293 296 271 92 348 297 291 273 271 274 275 281 341 287 316 307 359 316 264 332 13 328 352 343 274 241 282 260 232 241 344 285 72 239 256 252 180 53 263 170 237 125 242 235 290 358 227 210 210 228 39 168 173 175 154 196 354 37 148 133 113 115 135 140 137 138 154
307 310 315 321 325 329 333 333 342 350 352 352 332 319 298 341 324 323 313 292 266 253 282 315 310 288 276 273 272 271 272 273 281 308 302 294 291 286 320 288 300 312 346 323 261 222 196 331 278 243 231 210 163 255 336 248 238 141 327 164 219 160 241 242 242 144 283 1 42 86 176 215 187 180 18 181 173 345 354 79 135 150 133 145 156 140 154
301 306 314 314 319 323 328 331 333 339 343 348 328 325 309 311 312 317 302 285 264 265 267 267 266 267 265 259 248 249 250 253 265 264 259 268 280 251 251 266 258 20 298 320 336 331 350 312 291 340 293 269 298 251 209 242 265 141 218 184 316 35 326 351 224 208 155 208 72 127 127 173 183 174 33 28 118 3 323 161 165 126 136 163 156 150 151
297 304 312 317 315 318 326 329 330 332 335 337 328 315 310 308 305 309 293 270 274 298 277 221 252 243 258 253 154 193 215 228 231 244 240 232 248 258 236 234 273 265 190 50 353 323 340 307 304 332 278 360 294 244 249 228 230 19 267 203 199 135 160 211 227 156 188 215 171 198 142 142 186 166 105 79 357 352 342 68 71 117 148 152 110 136 148
291 297 306 314 312 316 324 326 323 321 328 327 310 302 293 287 277 294 303 314 311 321 306 292 265 315 351 251 260 244 232 233 217 217 215 215 229 245 352 48 343 331 33 21 326 288 266 293 272 218 258 99 284 258 61 289 124 22 250 223 188 182 186 222 224 190 220 249 145 142 113 141 174 186 163 169 162 148 53 54 52 52 57 95 120 133 144
290 300 303 304 308 313 321 318 322 326 325 322 309 305 301 292 299 284 269 267 265 269 281 292 353 129 255 287 275 298 297 258 234 217 218 216 221 237 267 291 291 334 304 302 300 291 299 273 274 286 273 184 239 274 256 344 337 359 291 357 47 105 195 220 172 216 155 97 130 128 134 150 186 184 206 140 152 152 132 95 73 78 106 102 95 113 140
289 295 296 296 302 313 312 317 318 323 315 310 301 304 290 286 277 262 249 249 277 232 215 254 299 306 317 301 302 284 225 222 222 225 221 220 223 227 237 253 265 272 273 267 249 271 267 264 276 270 248 297 343 285 309 259 265 263 247 187 172 197 210 112 216 206 219 207 150 164 171 155 171 197 197 189 166 152 142 131 138 140 141 136 123 106 95
288 290 290 290 300 307 309 307 313 311 313 309 297 293 289 280 267 252 236 236 240 306 323 309 302 304 309 279 265 236 263 235 228 225 224 219 219 224 229 233 241 253 245 246 250 225 233 242 240 239 270 277 265 242 212 257 253 246 246 230 202 238 74 253 227 241 1 43 133 80 61 91 56 199 189 186 145 152 144 164 175 162 155 153 141 127 117
285 285 285 292 299 300 302 305 309 309 306 301 304 294 278 286 303 199 218 215 251 280 288 288 282 265 285 45 315 276 212 227 226 222 221 221 217 217 222 226 230 236 242 250 265 281 271 262 286 276 264 32 303 265 229 234 225 242 232 194 187 86 83 50 100 154 102 26 26 14 50 110 125 87 64 100 121 155 147 167 172 143 147 163 157 140 132
281 282 286 292 296 296 299 306 312 311 323 305 303 288 250 166 174 153 175 168 199 258 293 324 312 334 352 309 278 238 270 250 234 227 225 222 215 215 218 216 223 229 243 244 241 245 243 253 256 253 262 265 269 310 276 276 252 203 99 168 155 156 119 97 11 19 18 18 0 7 6 17 31 37 45 71 102 232 215 136 115 131 163 171 147 136 141
281 284 286 288 291 295 295 301 313 316 295 281 288 280 266 233 138 178 162 200 220 289 300 283 274 307 288 230 256 279 293 278 264 240 222 221 221 218 214 212 220 212 222 229 237 249 272 251 246 243 237 230 243 263 256 240 236 240 95 119 159 161 143 108 91 65 75 66 26 348 332 354 6 338 0 66 117 182 130 174 158 162 153 155 141 144 145
279 280 283 287 289 292 294 295 299 302 282 273 244 267 4 22 66 153 175 222 269 283 300 310 296 245 291 266 240 297 285 277 262 245 221 206 217 211 213 207 214 202 221 231 232 245 236 243 256 262 261 130 184 249 249 257 254 217 123 87 91 100 84 70 85 110 86 89 106 310 304 300 304 298 273 284 190 210 198 173 155 139 141 139 132 138 140
278 281 286 289 290 288 289 292 290 287 281 287 307 302 292 287 269 255 214 234 255 275 290 290 276 301 277 357 321 262 322 276 220 217 227 183 218 190 212 200 213 209 188 231 218 232 219 223 230 242 239 247 243 241 244 242 233 217 111 256 227 136 126 103 97 87 85 104 202 211 222 260 297 248 265 288 198 192 184 169 150 146 144 138 134 130 125
279 285 287 287 291 292 290 292 289 278 262 253 244 230 215 217 222 214 232 219 265 273 257 268 288 286 290 313 274 102 348 330 297 233 242 160 201 193 206 185 197 218 184 208 211 230 246 241 226 235 224 215 218 245 242 235 237 248 189 206 227 298 47 212 124 79 63 84 97 182 290 312 326 338 275 223 198 184 180 164 157 161 165 160 154 146 135
289 289 295 296 293 293 292 284 273 221 235 215 242 127 104 98 339 148 195 202 230 212 217 234 242 288 298 290 266 94 2 316 266 71 287 133 175 230 182 210 173 216 194 202 230 224 230 227 232 233 228 210 210 224 231 237 236 240 236 246 215 158 356 301 283 134 274 292 230 269 312 338 310 292 258 215 187 182 178 177 175 170 169 170 159 151 152
290 301 296 295 291 283 270 220 222 226 217 225 168 98 99 182 200 209 204 209 254 302 281 290 286 277 300 301 312 54 348 284 249 263 245 283 222 216 239 213 210 216 200 179 220 208 228 213 224 237 223 222 221 218 221 223 241 242 249 251 245 180 256 263 279 200 157 175 213 206 228 278 270 269 267 227 202 186 195 185 180 183 172 159 155 150 149
304 299 290 282 270 225 234 231 183 218 346 8 345 308 291 260 211 213 199 221 216 231 267 283 268 264 272 292 310 297 317 297 356 282 204 213 245 159 200 204 241 171 185 209 215 220 216 202 227 234 225 229 228 207 225 221 222 237 251 261 267 257 239 256 271 285 270 267 235 192 219 221 232 229 228 221 210 205 196 193 184 183 177 166 156 155 150
311 290 278 256 233 235 227 208 165 21 347 302 277 247 177 192 216 177 183 219 216 209 222 234 254 271 284 272 259 47 305 275 322 304 242 135 254 206 206 223 225 185 215 208 213 207 214 195 218 232 239 238 254 248 216 213 232 243 251 257 264 263 259 255 198 225 252 234 225 222 221 237 232 220 224 223 209 201 203 196 191 194 178 159 151 147 141
264 265 242 233 253 246 317 62 7 322 278 238 231 238 223 198 218 216 194 194 179 212 209 226 248 244 242 249 263 259 268 317 299 261 238 111 292 211 184 226 169 216 249 237 187 167 210 199 217 220 238 224 227 219 216 250 274 308 305 294 278 281 286 276 249 238 243 243 242 216 208 215 224 227 221 221 217 213 205 196 188 181 161 149 145 144 143
269 254 267 256 234 31 12 158 155 274 227 222 186 245 237 189 222 233 140 198 213 223 188 230 223 232 228 252 286 297 156 250 292 309 334 310 201 276 64 266 119 237 223 228 180 155 232 218 203 218 229 217 186 46 24 9 337 348 359 353 341 331 315 293 273 256 252 249 248 248 233 232 236 235 217 217 209 200 195 186 171 155 148 146 144 147 146
215 273 231 254 7 328 303 318 282 240 220 206 188 205 259 232 219 242 214 231 241 214 192 242 161 223 227 233 229 257 126 241 263 262 272 274 52 284 250 236 107 257 234 225 111 196 213 246 227 212 120 57 35 13 3 352 346 344 346 343 336 328 318 304 289 273 257 251 248 252 258 256 247 246 233 216 209 204 196 178 163 158 147 142 147 143 135
9 330 327 315 291 286 271 208 211 198 211 235 238 225 213 253 218 210 224 248 212 190 173 189 219 222 210 215 226 240 260 243 293 270 274 256 173 245 249 243 166 247 227 192 85 234 232 225 223 184 59 45 40 10 5 339 335 328 328 328 327 322 319 308 294 285 274 259 248 242 237 240 247 248 242 227 213 203 184 164 154 150 146 142 137 132 135
266 246 273 289 240 213 216 199 179 224 189 193 195 255 209 225 212 231 203 217 269 263 124 219 272 274 264 255 247 241 285 350 280 242 245 270 50 244 250 231 213 226 222 71 226 221 220 225 214 82 14 41 18 19 355 355 338 332 327 326 321 319 310 299 288 282 277 270 257 243 233 231 232 230 232 222 195 177 165 158 151 147 144 139 136 135 135
264 234 213 220 219 174 201 196 173 146 218 217 184 206 200 212 204 196 238 196 175 217 203 248 196 271 235 179 275 261 230 213 209 263 254 255 262 232 234 236 224 192 80 242 231 224 218 78 62 64 33 24 20 10 0 352 345 341 332 332 322 326 324 312 295 282 275 265 255 246 237 227 219 213 209 202 189 171 156 149 150 144 139 135 135 135 135
256 203 217 210 248 187 195 205 201 204 221 195 215 250 207 229 202 206 223 74 240 273 51 247 250 252 268 90 229 218 248 276 98 259 253 218 259 242 235 244 345 297 237 229 230 229 215 127 34 35 21 8 357 356 354 351 350 347 343 327 329 331 331 321 308 292 279 270 253 237 228 216 206 199 197 190 187 170 155 153 150 143 142 138 135 135 138
229 245 219 196 258 246 227 225 162 221 229 231 218 224 236 259 282 195 65 23 281 238 244 269 265 256 262 193 271 325 144 282 267 228 255 246 261 238 233 309 280 258 243 228 230 230 127 52 20 19 6 358 351 348 348 348 343 344 340 341 331 330 327 322 315 303 288 275 257 238 228 215 203 191 185 178 168 162 156 150 150 146 142 138 140 139 142
245 207 261 273 277 228 207 229 214 230 360 231 230 255 253 272 253 272 324 255 244 259 280 266 279 290 284 280 264 208 208 226 262 261 262 251 247 303 314 256 239 228 240 235 233 204 70 37 20 3 2 355 347 345 344 345 346 343 340 333 332 325 327 324 318 311 303 286 263 240 223 213 199 181 160 154 156 157 151 148 149 146 142 138 137 138 140
215 193 231 223 226 209 216 223 251 269 230 248 221 242 265 255 237 225 209 234 277 267 266 287 261 226 238 161 241 277 277 233 262 246 227 284 324 262 251 243 238 237 240 279 42 60 50 27 10 1 351 353 347 342 342 341 341 340 339 335 331 326 323 325 323 318 318 303 276 245 221 199 180 166 159 153 148 149 147 146 143 140 133 132 136 140 141
306 249 222 250 269 272 259 290 281 254 233 219 226 238 235 233 236 239 273 255 257 259 286 277 285 296 271 225 267 263 252 196 238 226 165 207 227 226 221 234 223 221 135 65 87 46 33 8 5 348 342 340 348 345 338 337 335 335 336 335 331 326 321 321 326 322 314 308 285 251 211 179 165 156 149 144 143 146 145 141 140 135 136 137 140 142 141
209 224 246 246 260 238 231 261 263 263 239 218 225 239 235 241 244 236 219 247 248 269 268 241 255 273 286 311 271 253 257 223 243 260 238 233 233 244 240 245 257 354 102 80 66 19 2 343 340 334 341 341 341 342 338 336 335 331 336 337 332 327 322 318 324 327 318 308 292 248 206 188 173 156 151 146 139 137 145 139 133 132 135 138 140 141 141
240 252 254 246 253 280 277 238 240 245 236 228 224 233 233 244 246 244 209 259 266 260 249 255 226 250 260 241 255 250 245 252 244 241 245 248 221 235 236 244 191 149 119 103 82 357 332 338 332 330 336 334 335 332 336 332 332 333 332 334 330 325 323 315 317 328 321 314 294 238 197 185 175 159 148 135 134 142 137 126 128 132 135 137 140 140 140
235 234 243 234 238 253 257 270 272 265 275 282 270 257 249 251 245 244 135 269 254 249 249 246 248 244 240 241 234 258 310 248 241 242 243 241 242 248 250 283 149 167 113 113 62 15 357 331 327 317 320 327 328 330 334 333 329 330 333 332 331 326 323 320 314 321 321 314 286 224 181 166 156 151 148 135 135 136 132 135 138 139 139 139 140 141 140